Location: Saint-Restitut
(44.3351°N, 4.7915°E)
Time: 03:27:23
(UTC+00:00)

SKYMED 3 - Pass Details

Date: 03 February 2023
Orbit: 576 x 599 km, 97.9° (Epoch: 27 March)

Event Time Altitude Azimuth Distance (km) Brightness Sun altitude
Rises 17:59:08 0° 14° (NNE) 2,807 7.7 -12.2°
Reaches altitude 10° 18:01:18 10° 16° (NNE) 1,906 6.8 -12.6°
Maximum altitude 18:05:26 76° 103° (ESE) 608 4.3 -13.3°
Drops below altitude 10° 18:09:33 10° 189° (S) 1,905 7.3 -14.0°
Sets 18:11:43 0° 191° (S) 2,805 8.2 -14.4°
